QPF
0.00 0.00 0.00 0.00 0.00 0.00 0.00 0.00 0.00 0.00 0.00 0.00 0.00 0.00 0.00 0.00 0.00 0.00 0.00 0.00 0.00 0.00 0.00 0.00 0.00 0.00 0.00 0.00 0.00 0.00 0.00 0.00 0.00 0.02 0.04 0.00 0.00 0.00 0.01 0.00 0.00 0.00 0.00 0.00 0.00
0.00 0.00 0.00 0.00 0.00 0.00 0.00 0.00 0.00 0.00 0.00 0.00 0.00 0.00 0.00 0.00 0.00 0.00 0.00 0.00 0.00 0.00 0.00 0.00 0.00 0.00 0.00 0.00 0.00 0.00 0.00 0.00 0.00 0.00 0.00 0.00 0.02 0.01 0.00 0.00 0.00 0.00 0.00 0.00 0.00
0.00 0.00 0.00 0.00 0.00 0.00 0.00 0.00 0.00 0.00 0.00 0.00 0.00 0.00 0.00 0.00 0.00 0.00 0.00 0.00 0.00 0.00 0.00 0.00 0.00 0.00 0.00 0.00 0.00 0.00 0.00 0.00 0.00 0.00 0.00 0.00 0.00 0.00 0.00 0.00 0.01 0.00 0.00 0.00 0.00
0.00 0.00 0.00 0.00 0.00 0.00 0.00 0.00 0.00 0.00 0.00 0.00 0.00 0.00 0.00 0.00 0.00 0.00 0.00 0.00 0.00 0.00 0.00 0.00 0.00 0.00 0.00 0.00 0.00 0.00 0.00 0.00 0.00 0.00 0.00 0.00 0.01 0.00 0.03 0.01 0.00 0.00 0.00 0.00 0.00
0.00 0.00 0.00 0.00 0.00 0.00 0.00 0.00 0.00 0.00 0.00 0.00 0.00 0.00 0.00 0.00 0.00 0.00 0.00 0.00 0.00 0.00 0.00 0.00 0.00 0.00 0.00 0.00 0.00 0.00 0.00 0.00 0.00 0.00 0.00 0.00 0.00 0.00 0.01 0.00 0.00 0.00 0.00 0.00 0.00
0.00 0.00 0.00 0.00 0.00 0.00 0.00 0.00 0.00 0.00 0.00 0.00 0.00 0.00 0.00 0.00 0.00 0.00 0.00 0.00 0.00 0.00 0.00 0.00 0.00 0.00 0.00 0.00 0.00 0.00 0.00 0.00 0.00 0.00 0.00 0.00 0.01 0.00 0.01 0.00 0.00 0.00 0.00 0.00 0.00
0.00 0.00 0.00 0.00 0.00 0.00 0.00 0.00 0.00 0.00 0.00 0.00 0.00 0.00 0.00 0.00 0.00 0.00 0.00 0.00 0.00 0.00 0.00 0.00 0.00 0.00 0.00 0.00 0.00 0.00 0.00 0.00 0.00 0.00 0.00 0.00 0.06 0.00 0.01 0.01 0.00 0.00 0.00 0.00 0.00
0.00 0.00 0.00 0.00 0.00 0.00 0.00 0.00 0.00 0.00 0.00 0.00 0.00 0.00 0.00 0.00 0.00 0.00 0.00 0.00 0.00 0.00 0.00 0.00 0.00 0.00 0.00 0.00 0.00 0.00 0.00 0.00 0.00 0.00 0.00 0.05 0.18 0.00 0.00 0.02 0.00 0.00 0.00 0.00 0.00
0.00 0.00 0.00 0.00 0.00 0.00 0.00 0.00 0.00 0.00 0.00 0.00 0.00 0.00 0.00 0.00 0.00 0.00 0.00 0.00 0.00 0.00 0.00 0.00 0.00 0.00 0.00 0.00 0.00 0.00 0.00 0.00 0.00 0.00 0.00 0.05 0.06 0.00 0.00 0.00 0.00 0.00 0.00 0.00 0.00
0.00 0.00 0.00 0.00 0.00 0.00 0.00 0.00 0.00 0.00 0.00 0.00 0.00 0.00 0.00 0.00 0.00 0.00 0.00 0.00 0.00 0.00 0.00 0.00 0.00 0.00 0.00 0.00 0.00 0.00 0.00 0.00 0.00 0.00 0.00 0.01 0.00 0.00 0.00 0.00 0.00 0.00 0.00 0.00 0.00
0.00 0.00 0.00 0.00 0.00 0.00 0.00 0.00 0.00 0.00 0.00 0.00 0.00 0.00 0.00 0.00 0.00 0.00 0.00 0.00 0.00 0.00 0.00 0.00 0.00 0.00 0.00 0.00 0.00 0.00 0.00 0.00 0.00 0.00 0.00 0.00 0.00 0.00 0.00 0.00 0.00 0.00 0.00 0.00 0.00
0.00 0.00 0.00 0.00 0.00 0.00 0.00 0.00 0.00 0.00 0.00 0.00 0.00 0.00 0.00 0.00 0.00 0.00 0.00 0.00 0.00 0.00 0.00 0.00 0.00 0.00 0.00 0.00 0.00 0.00 0.00 0.00 0.01 0.00 0.00 0.00 0.00 0.00 0.00 0.00 0.00 0.00 0.00 0.00 0.00
0.00 0.00 0.00 0.00 0.00 0.00 0.00 0.00 0.00 0.00 0.00 0.00 0.00 0.00 0.00 0.00 0.00 0.00 0.00 0.00 0.00 0.00 0.00 0.00 0.00 0.00 0.00 0.00 0.00 0.00 0.00 0.00 0.00 0.00 0.00 0.00 0.00 0.00 0.00 0.00 0.00 0.00 0.00 0.00 0.00
0.00 0.00 0.00 0.00 0.00 0.00 0.00 0.00 0.00 0.00 0.00 0.00 0.00 0.00 0.00 0.00 0.00 0.00 0.00 0.00 0.00 0.00 0.00 0.00 0.00 0.00 0.00 0.00 0.00 0.00 0.00 0.00 0.00 0.00 0.01 0.00 0.01 0.01 0.00 0.00 0.00 0.00 0.00 0.00 0.00
0.00 0.00 0.00 0.00 0.00 0.00 0.00 0.00 0.00 0.00 0.00 0.00 0.00 0.00 0.00 0.00 0.00 0.00 0.00 0.00 0.00 0.00 0.00 0.00 0.00 0.00 0.00 0.00 0.00 0.00 0.00 0.00 0.00 0.00 0.00 0.02 0.00 0.00 0.00 0.00 0.00 0.00 0.00 0.00 0.00
0.00 0.00 0.00 0.00 0.00 0.00 0.00 0.00 0.00 0.00 0.00 0.00 0.00 0.00 0.00 0.00 0.00 0.00 0.00 0.00 0.00 0.00 0.00 0.00 0.00 0.00 0.00 0.00 0.00 0.00 0.00 0.00 0.00 0.00 0.01 0.00 0.00 0.00 0.01 0.00 0.00 0.00 0.00 0.00 0.00
0.00 0.00 0.00 0.00 0.00 0.00 0.00 0.00 0.00 0.00 0.00 0.00 0.00 0.00 0.00 0.00 0.00 0.00 0.00 0.00 0.00 0.00 0.00 0.00 0.00 0.00 0.00 0.00 0.00 0.00 0.00 0.00 0.00 0.00 0.01 0.00 0.00 0.00 0.00 0.00 0.00 0.00 0.00 0.00 0.00
0.00 0.00 0.00 0.00 0.00 0.00 0.00 0.00 0.00 0.00 0.00 0.00 0.00 0.00 0.00 0.00 0.00 0.00 0.00 0.00 0.00 0.00 0.00 0.00 0.00 0.00 0.00 0.00 0.00 0.00 0.00 0.00 0.00 0.00 0.00 0.00 0.00 0.00 0.00 0.00 0.00 0.00 0.00 0.00 0.00
0.00 0.00 0.00 0.00 0.00 0.00 0.00 0.00 0.00 0.00 0.00 0.00 0.00 0.00 0.00 0.00 0.00 0.00 0.00 0.00 0.00 0.00 0.00 0.00 0.00 0.00 0.00 0.00 0.00 0.00 0.00 0.00 0.00 0.00 0.00 0.00 0.00 0.00 0.00 0.00 0.00 0.00 0.00 0.00 0.00
0.00 0.00 0.00 0.00 0.00 0.00 0.00 0.00 0.00 0.00 0.00 0.00 0.00 0.00 0.00 0.00 0.00 0.00 0.00 0.00 0.00 0.00 0.00 0.00 0.00 0.00 0.00 0.00 0.00 0.00 0.00 0.00 0.00 0.00 0.00 0.00 0.00 0.00 0.00 0.00 0.00 0.00 0.00 0.00 0.00
0.00 0.00 0.00 0.00 0.00 0.00 0.00 0.00 0.00 0.00 0.00 0.00 0.00 0.00 0.00 0.00 0.00 0.00 0.00 0.00 0.00 0.00 0.00 0.00 0.00 0.00 0.00 0.00 0.00 0.00 0.00 0.00 0.00 0.00 0.00 0.00 0.00 0.00 0.00 0.00 0.00 0.00 0.00 0.00 0.00
0.00 0.00 0.00 0.00 0.00 0.00 0.00 0.00 0.00 0.00 0.00 0.00 0.00 0.00 0.00 0.00 0.00 0.00 0.00 0.00 0.00 0.00 0.00 0.00 0.00 0.00 0.00 0.00 0.00 0.00 0.00 0.00 0.00 0.00 0.00 0.00 0.00 0.00 0.00 0.00 0.00 0.00 0.00 0.00 0.00
0.00 0.00 0.00 0.00 0.00 0.00 0.00 0.00 0.00 0.00 0.00 0.00 0.00 0.00 0.00 0.00 0.00 0.00 0.00 0.00 0.00 0.00 0.00 0.00 0.00 0.00 0.00 0.00 0.00 0.00 0.00 0.00 0.00 0.00 0.00 0.00 0.00 0.00 0.00 0.00 0.00 0.00 0.00 0.00 0.00
0.00 0.00 0.00 0.00 0.00 0.00 0.00 0.00 0.00 0.00 0.00 0.00 0.00 0.00 0.00 0.00 0.00 0.00 0.00 0.00 0.00 0.00 0.00 0.00 0.00 0.00 0.00 0.00 0.00 0.00 0.00 0.00 0.00 0.00 0.00 0.00 0.00 0.00 0.00 0.00 0.00 0.00 0.00 0.00 0.00
0.00 0.00 0.00 0.00 0.00 0.00 0.00 0.00 0.00 0.00 0.00 0.00 0.00 0.00 0.00 0.00 0.00 0.00 0.00 0.00 0.00 0.00 0.00 0.00 0.00 0.00 0.00 0.00 0.00 0.00 0.00 0.00 0.00 0.00 0.00 0.00 0.00 0.00 0.00 0.00 0.00 0.00 0.00 0.00 0.00
0.00 0.00 0.00 0.00 0.00 0.00 0.00 0.00 0.00 0.00 0.00 0.00 0.00 0.00 0.00 0.00 0.00 0.00 0.00 0.00 0.00 0.00 0.00 0.00 0.00 0.00 0.00 0.00 0.00 0.00 0.00 0.00 0.00 0.00 0.00 0.00 0.00 0.00 0.00 0.00 0.00 0.00 0.00 0.00 0.00
0.00 0.00 0.00 0.00 0.00 0.00 0.00 0.00 0.00 0.00 0.00 0.00 0.00 0.00 0.00 0.00 0.00 0.00 0.00 0.00 0.00 0.00 0.00 0.00 0.00 0.00 0.00 0.00 0.00 0.00 0.00 0.00 0.00 0.00 0.00 0.00 0.00 0.00 0.00 0.00 0.00 0.00 0.00 0.00 0.00
MSLP
1017.07 1016.87 1016.62 1016.38 1016.11 1015.86 1015.64 1015.44 1015.23 1015.10 1014.93 1014.71 1014.51 1014.24 1013.75 1013.34 1012.60 1011.90 1009.49 1008.11 1007.80 1008.42 1008.86 1007.58 1007.22 1006.45 1006.07 1005.22 1005.29 1005.00 1004.52 1005.13 1005.15 1005.61 1006.08 1006.15 1006.11 1006.50 1006.62 1005.67 1005.33 1005.70 1005.41 1006.55 1008.27
1017.19 1016.92 1016.62 1016.32 1016.05 1015.79 1015.54 1015.33 1015.08 1014.94 1014.83 1014.68 1014.39 1014.08 1013.71 1013.33 1011.69 1009.16 1007.85 1007.97 1008.25 1008.51 1008.08 1006.89 1006.16 1005.70 1004.68 1004.78 1004.78 1004.37 1004.50 1005.13 1005.52 1005.79 1006.07 1006.07 1006.97 1006.19 1006.33 1005.88 1005.89 1006.06 1006.43 1007.38 1008.45
1017.23 1016.97 1016.70 1016.36 1016.01 1015.73 1015.49 1015.27 1015.04 1014.84 1014.66 1014.47 1014.19 1013.87 1013.49 1013.03 1010.17 1006.71 1007.49 1007.69 1008.36 1008.38 1006.86 1006.18 1005.46 1005.22 1004.31 1004.35 1004.74 1004.70 1004.86 1005.46 1005.57 1006.38 1006.15 1006.08 1006.19 1006.57 1006.47 1006.83 1007.01 1005.28 1006.58 1007.65 1008.35
1017.25 1016.94 1016.65 1016.37 1016.05 1015.75 1015.43 1015.14 1014.87 1014.73 1014.55 1014.26 1014.05 1013.71 1013.38 1012.03 1007.98 1006.87 1007.77 1007.93 1008.33 1007.84 1006.73 1006.00 1005.41 1004.76 1003.78 1003.67 1004.51 1004.76 1004.87 1005.52 1005.79 1006.49 1006.32 1006.15 1007.24 1006.91 1007.63 1008.60 1006.01 1005.44 1006.55 1007.45 1008.07
1017.22 1016.90 1016.61 1016.33 1016.03 1015.71 1015.40 1015.09 1014.82 1014.60 1014.39 1014.09 1013.88 1013.59 1012.98 1009.88 1006.75 1007.20 1007.93 1008.28 1008.13 1007.69 1006.46 1005.63 1005.01 1004.32 1003.61 1003.69 1004.34 1004.27 1004.60 1005.07 1005.95 1006.46 1006.35 1006.32 1006.68 1007.03 1006.94 1006.17 1006.09 1006.32 1006.85 1007.31 1007.79
1017.21 1016.85 1016.51 1016.21 1015.94 1015.63 1015.30 1014.96 1014.65 1014.37 1014.12 1013.91 1013.71 1013.60 1011.70 1007.81 1005.95 1006.22 1006.90 1007.52 1007.01 1006.87 1006.01 1005.41 1004.76 1004.25 1004.07 1003.77 1004.33 1004.79 1004.58 1004.91 1005.48 1005.57 1006.12 1006.35 1006.73 1006.55 1006.90 1006.08 1006.34 1006.72 1006.77 1007.04 1007.28
1017.19 1016.79 1016.42 1016.08 1015.79 1015.46 1015.11 1014.76 1014.41 1014.06 1013.81 1013.63 1013.47 1012.85 1009.64 1006.47 1006.11 1006.01 1006.24 1006.56 1006.55 1006.19 1005.37 1005.24 1005.04 1004.70 1003.89 1003.46 1004.60 1004.66 1004.27 1003.95 1004.59 1005.26 1005.79 1006.27 1006.61 1006.20 1006.79 1006.16 1006.17 1006.35 1006.56 1006.83 1007.14
1017.08 1016.75 1016.37 1015.96 1015.60 1015.28 1014.93 1014.57 1014.09 1013.44 1013.33 1013.32 1013.26 1011.75 1007.36 1006.02 1005.86 1006.01 1005.80 1005.99 1006.15 1005.93 1005.55 1005.17 1005.48 1004.87 1004.39 1004.01 1004.10 1004.07 1003.84 1003.23 1003.95 1004.81 1005.37 1005.97 1005.69 1005.67 1006.31 1006.44 1006.01 1005.86 1006.17 1006.67 1007.25
1016.91 1016.55 1016.27 1015.88 1015.43 1015.06 1014.67 1014.21 1013.69 1013.28 1013.14 1013.05 1012.39 1010.14 1005.83 1006.85 1005.94 1005.43 1005.43 1005.46 1005.77 1005.83 1005.82 1006.05 1005.46 1004.48 1003.81 1003.66 1002.65 1002.85 1002.34 1003.30 1003.43 1004.18 1004.61 1005.25 1005.03 1005.27 1006.23 1005.91 1005.70 1005.47 1005.64 1006.41 1007.29
1016.82 1016.33 1016.02 1015.66 1015.26 1014.87 1014.38 1013.92 1013.43 1013.15 1012.75 1011.66 1010.28 1008.51 1005.63 1004.74 1004.55 1005.02 1005.26 1005.14 1005.38 1005.44 1005.54 1005.57 1004.86 1003.91 1003.12 1002.37 1002.06 1002.68 1002.38 1003.20 1003.44 1003.73 1004.26 1004.54 1004.34 1004.94 1005.42 1005.10 1004.90 1005.01 1005.22 1005.84 1006.39
1016.73 1016.18 1015.72 1015.42 1015.09 1014.76 1013.89 1012.74 1012.34 1010.97 1009.45 1006.45 1005.71 1004.50 1003.62 1003.50 1004.46 1004.84 1005.11 1004.99 1004.99 1004.89 1004.56 1004.37 1003.69 1002.61 1001.69 1001.74 1002.72 1003.09 1002.78 1002.67 1003.41 1003.36 1003.68 1003.40 1003.26 1003.50 1003.86 1004.15 1004.30 1004.48 1004.36 1004.96 1005.47
1016.47 1016.00 1015.52 1015.05 1014.76 1014.43 1013.79 1009.83 1007.25 1007.12 1005.84 1005.34 1004.63 1003.94 1003.75 1003.89 1003.86 1004.03 1004.77 1004.62 1004.37 1003.94 1003.85 1003.23 1002.80 1002.13 1001.80 1002.57 1002.73 1002.45 1002.19 1002.09 1003.17 1003.18 1003.37 1002.80 1002.52 1002.25 1002.27 1002.98 1003.25 1003.65 1004.07 1004.19 1004.75
1016.08 1015.57 1015.16 1014.73 1014.36 1013.70 1010.68 1008.08 1007.45 1006.84 1005.01 1003.29 1003.56 1003.47 1003.39 1003.71 1002.73 1003.01 1004.19 1003.87 1003.45 1003.28 1002.71 1002.12 1001.18 1001.70 1001.88 1002.15 1001.98 1001.38 1001.19 1001.40 1001.98 1002.25 1002.75 1002.91 1002.11 1001.64 1001.41 1001.77 1002.39 1002.74 1003.12 1003.34 1004.05
1015.63 1015.10 1014.73 1014.42 1014.18 1009.61 1008.55 1007.54 1007.37 1007.02 1004.36 1002.41 1002.64 1002.50 1002.53 1003.01 1002.38 1002.24 1003.45 1003.13 1002.73 1002.36 1002.06 1002.12 1001.66 1001.99 1001.82 1001.61 1001.56 1000.53 1001.38 1001.45 1001.49 1002.13 1002.66 1003.66 1003.06 1002.83 1000.42 1000.82 1001.20 1001.83 1002.23 1002.53 1003.22
1014.96 1014.51 1014.29 1014.38 1011.79 1008.66 1007.55 1007.13 1007.14 1006.72 1002.69 1001.63 1001.50 1001.63 1002.01 1002.21 1001.36 1002.31 1002.98 1002.78 1002.27 1002.26 1002.13 1001.40 1001.57 1001.44 1001.42 1001.18 1001.37 1000.87 1001.39 1001.41 1001.05 1001.10 1001.33 1002.89 1002.95 1001.79 1000.59 999.72 999.98 1000.51 1001.05 1001.90 1002.31
1014.30 1013.79 1013.65 1012.99 1011.50 1008.23 1007.84 1007.48 1007.11 1005.05 1001.00 1000.85 1001.27 1001.63 1001.36 1001.60 1001.20 1001.87 1002.60 1002.82 1002.36 1002.01 1001.88 1001.35 1001.40 1001.16 1000.86 1000.77 1001.39 1001.28 1000.99 1000.52 1000.02 1000.43 1001.81 1002.94 1001.88 1000.74 1001.52 999.50 999.33 999.57 1000.04 1000.78 1001.75
1013.65 1013.18 1012.97 1009.87 1007.84 1007.87 1007.64 1006.87 1004.91 1002.18 1000.62 1000.14 1000.54 1000.86 1000.86 1000.79 1000.83 1001.76 1002.04 1002.20 1001.64 1001.71 1001.00 1001.22 1001.00 1001.02 1000.99 1000.69 1000.57 1000.84 999.78 999.96 999.04 999.90 1001.78 1000.99 999.99 999.59 998.94 999.07 999.46 999.38 999.67 1000.16 1001.38
1013.06 1012.77 1011.13 1009.21 1008.49 1008.04 1007.35 1005.64 1002.85 1000.73 999.93 1000.19 999.95 1000.18 1000.16 999.90 1000.27 1000.81 1001.00 1000.83 1001.10 1000.43 999.58 999.30 999.65 999.99 1000.08 1000.25 999.63 999.49 998.89 998.79 998.33 997.90 998.52 999.04 998.98 998.79 998.87 998.84 999.37 999.50 999.69 1000.34 1001.28
1012.38 1010.52 1008.42 1008.12 1008.28 1008.02 1006.18 1003.48 1000.90 1000.68 1000.47 1000.33 1000.00 999.77 999.64 999.56 999.68 1000.03 1000.17 999.69 999.53 999.97 999.61 998.21 998.30 998.39 998.97 999.51 999.77 998.88 998.76 998.37 997.86 997.32 997.55 997.84 998.96 999.39 998.89 998.79 999.09 999.51 999.92 1000.46 1001.24
1010.65 1007.51 1007.54 1007.72 1007.86 1007.21 1005.30 1002.48 1001.69 1001.97 1001.84 1000.98 999.80 999.47 998.89 999.12 999.51 999.26 999.21 999.08 999.13 999.12 999.62 998.71 998.38 998.10 998.28 999.14 999.23 999.23 998.70 997.85 997.79 997.38 997.38 998.00 997.84 998.64 998.59 998.48 998.83 999.37 999.81 1000.50 1001.24
1010.17 1006.18 1007.10 1007.21 1007.35 1006.05 1003.57 1001.91 1002.02 1002.27 1002.37 1001.34 1000.23 999.79 999.38 998.34 998.71 998.94 998.68 998.38 998.90 998.57 998.93 999.16 998.62 997.99 998.42 998.58 997.78 998.40 998.49 998.18 997.49 997.14 996.43 996.99 998.55 997.45 997.51 998.06 998.42 998.94 999.48 1000.18 1001.03
1008.40 1005.17 1006.55 1006.79 1005.74 1003.95 1002.75 1002.17 1003.34 1002.52 1002.32 1002.00 1001.65 1000.93 1000.15 999.30 998.77 998.56 998.28 998.26 998.80 999.16 999.04 999.13 998.45 998.12 997.71 997.47 997.55 997.48 997.07 997.01 996.80 997.22 996.81 996.73 997.89 997.91 997.42 997.53 998.21 998.70 999.28 999.99 1000.53
1008.06 1006.01 1006.13 1005.93 1003.92 1002.72 1002.76 1003.18 1003.26 1002.70 1002.37 1002.00 1001.62 1001.29 1000.74 1000.54 1000.36 999.79 998.77 999.03 999.80 999.73 999.77 999.28 999.07 998.36 997.67 997.08 997.29 997.60 997.38 996.85 996.31 996.10 996.26 996.97 996.95 997.24 997.33 997.52 997.86 998.32 999.28 1000.03 1000.54
1008.82 1005.73 1005.27 1005.32 1004.78 1004.24 1003.29 1003.16 1002.89 1003.51 1003.37 1003.18 1002.63 1001.97 1001.77 1001.07 1000.64 1000.33 1000.22 999.80 1000.62 1000.32 1000.91 1000.70 999.56 998.75 998.01 999.25 999.89 998.51 997.41 996.68 996.18 995.76 995.82 996.01 996.37 996.48 996.95 997.35 997.53 997.83 998.70 999.85 1000.50
1009.25 1007.15 1007.26 1004.78 1004.62 1004.85 1004.74 1004.24 1003.73 1003.36 1003.78 1003.69 1002.97 1002.70 1002.10 1001.61 1000.77 1000.24 1000.47 1000.34 1001.10 1001.42 1001.36 1000.82 999.99 999.72 998.73 998.10 998.87 999.42 998.38 996.73 997.41 996.20 995.87 996.33 998.38 998.54 996.57 997.67 998.58 997.63 998.27 999.29 1000.27
1010.60 1009.62 1008.31 1006.99 1006.48 1006.16 1005.41 1004.92 1004.63 1004.19 1004.57 1003.96 1003.74 1003.10 1003.51 1002.86 1002.10 1001.25 1001.23 1000.29 1000.55 1000.85 1001.12 1000.77 1000.44 1000.19 999.48 998.62 997.90 997.52 997.13 996.50 996.35 996.56 996.20 995.96 996.52 997.45 996.75 996.42 996.89 997.12 998.06 998.80 999.81
1012.67 1011.32 1010.36 1007.92 1006.70 1006.37 1005.59 1005.49 1005.89 1006.18 1005.83 1005.34 1005.05 1005.14 1004.49 1004.00 1004.40 1003.57 1003.32 1002.56 1001.77 1001.26 1001.03 1001.08 1000.94 1000.59 999.80 999.05 998.27 997.24 996.85 996.54 996.11 996.35 996.74 995.83 995.77 995.38 995.57 995.97 996.28 996.99 997.81 998.52 999.11
Thickness
5748 5749 5751 5753 5756 5759 5762 5765 5767 5769 5771 5773 5776 5778 5783 5786 5793 5801 5809 5827 5830 5827 5823 5829 5827 5828 5830 5824 5827 5830 5796 5773 5787 5784 5785 5806 5797 5808 5814 5813 5819 5817 5816 5814 5808
5749 5751 5754 5756 5759 5761 5765 5767 5770 5772 5774 5776 5779 5781 5784 5788 5801 5813 5832 5831 5829 5825 5823 5821 5817 5825 5822 5819 5822 5814 5790 5788 5806 5804 5793 5803 5789 5803 5801 5804 5804 5806 5814 5812 5804
5751 5754 5756 5759 5762 5765 5767 5770 5773 5775 5777 5779 5781 5784 5787 5790 5806 5829 5836 5834 5827 5826 5835 5834 5833 5823 5815 5822 5814 5810 5789 5802 5805 5802 5806 5801 5801 5806 5798 5787 5791 5807 5803 5802 5800
5753 5756 5758 5760 5764 5767 5770 5773 5776 5777 5779 5781 5783 5786 5788 5799 5794 5837 5833 5831 5827 5829 5830 5825 5821 5810 5812 5807 5816 5794 5809 5805 5805 5801 5801 5797 5793 5790 5784 5766 5811 5820 5812 5804 5798
5754 5756 5759 5762 5764 5767 5771 5774 5777 5779 5780 5783 5784 5786 5794 5803 5818 5837 5831 5827 5827 5826 5821 5818 5812 5813 5804 5812 5809 5802 5807 5810 5805 5800 5802 5805 5793 5788 5791 5810 5817 5814 5808 5803 5802
5753 5757 5760 5763 5765 5768 5771 5774 5777 5780 5782 5784 5785 5786 5798 5798 5846 5844 5838 5831 5831 5825 5823 5824 5817 5824 5811 5810 5801 5806 5809 5807 5806 5806 5802 5793 5788 5797 5793 5814 5807 5803 5803 5805 5805
5752 5756 5759 5762 5765 5768 5771 5774 5778 5781 5783 5784 5785 5791 5804 5817 5844 5844 5841 5833 5834 5830 5821 5829 5828 5815 5820 5809 5812 5807 5796 5810 5807 5805 5795 5799 5777 5786 5794 5807 5801 5801 5803 5804 5805
5751 5754 5757 5761 5764 5767 5770 5774 5778 5783 5784 5785 5785 5794 5808 5842 5844 5839 5842 5833 5837 5836 5830 5834 5827 5816 5810 5820 5807 5796 5801 5787 5805 5803 5802 5795 5767 5796 5801 5794 5796 5802 5803 5802 5801
5750 5754 5756 5759 5763 5766 5770 5775 5779 5782 5783 5784 5790 5799 5813 5834 5826 5840 5841 5825 5828 5829 5827 5824 5819 5808 5814 5794 5798 5802 5792 5782 5791 5809 5802 5794 5782 5799 5797 5797 5794 5801 5804 5800 5797
5748 5752 5755 5758 5762 5765 5770 5774 5778 5780 5784 5791 5800 5794 5820 5818 5835 5836 5840 5835 5819 5817 5807 5804 5803 5795 5802 5803 5775 5776 5790 5786 5781 5800 5799 5790 5791 5793 5798 5800 5800 5802 5805 5802 5801
5745 5749 5753 5756 5759 5763 5770 5782 5785 5787 5796 5815 5818 5822 5829 5843 5842 5826 5832 5824 5820 5809 5786 5801 5787 5784 5809 5816 5800 5791 5790 5787 5790 5807 5798 5800 5803 5802 5810 5807 5802 5803 5809 5808 5808
5741 5745 5750 5754 5758 5762 5768 5793 5812 5812 5803 5822 5826 5828 5835 5836 5812 5823 5832 5806 5802 5787 5799 5796 5780 5807 5819 5805 5796 5796 5792 5794 5792 5806 5800 5805 5804 5817 5819 5812 5813 5808 5809 5812 5812
5740 5744 5747 5751 5755 5763 5787 5801 5816 5818 5800 5820 5826 5820 5824 5827 5818 5818 5821 5813 5801 5792 5798 5791 5814 5816 5807 5798 5793 5806 5801 5797 5791 5808 5811 5802 5800 5806 5823 5823 5820 5820 5821 5822 5814
5739 5744 5747 5750 5753 5792 5788 5807 5810 5813 5784 5803 5809 5820 5829 5826 5811 5841 5831 5818 5807 5796 5803 5797 5815 5800 5798 5794 5802 5801 5811 5805 5801 5789 5752 5779 5755 5745 5823 5818 5819 5819 5821 5823 5821
5742 5746 5748 5748 5769 5784 5796 5806 5808 5799 5762 5805 5815 5847 5832 5813 5826 5817 5834 5819 5798 5797 5802 5795 5797 5796 5790 5799 5806 5800 5810 5803 5808 5802 5808 5778 5770 5788 5816 5816 5821 5825 5827 5826 5829
5744 5749 5750 5756 5765 5792 5796 5799 5794 5765 5766 5796 5812 5804 5807 5813 5818 5820 5812 5822 5820 5802 5804 5803 5819 5811 5809 5818 5808 5811 5805 5811 5819 5808 5751 5761 5776 5791 5765 5816 5826 5834 5834 5833 5829
5748 5752 5754 5775 5784 5791 5793 5786 5764 5765 5812 5796 5795 5806 5804 5801 5806 5801 5794 5789 5786 5768 5777 5792 5796 5811 5816 5799 5814 5804 5804 5767 5780 5780 5720 5793 5800 5804 5829 5832 5828 5829 5833 5836 5831
5751 5754 5767 5778 5783 5786 5783 5771 5754 5795 5801 5813 5810 5807 5794 5811 5806 5803 5796 5790 5803 5803 5800 5789 5774 5804 5818 5803 5805 5809 5815 5785 5763 5787 5794 5821 5788 5806 5835 5842 5837 5837 5837 5835 5828
5757 5772 5785 5787 5784 5784 5775 5764 5788 5794 5804 5797 5802 5791 5794 5808 5809 5802 5798 5802 5813 5811 5786 5804 5798 5833 5827 5822 5816 5811 5799 5832 5811 5828 5810 5816 5809 5817 5831 5830 5832 5829 5830 5828 5826
5773 5791 5783 5789 5787 5782 5770 5768 5787 5796 5795 5798 5784 5800 5792 5800 5795 5802 5801 5817 5810 5823 5821 5815 5787 5826 5830 5826 5823 5810 5829 5803 5812 5777 5771 5791 5806 5787 5778 5819 5827 5825 5826 5826 5825
5773 5786 5787 5793 5788 5775 5768 5787 5789 5798 5793 5788 5791 5791 5798 5811 5808 5800 5805 5825 5821 5823 5826 5814 5808 5811 5819 5804 5811 5808 5800 5809 5821 5817 5798 5784 5774 5834 5827 5827 5826 5828 5831 5829 5826
5783 5779 5792 5793 5768 5785 5780 5791 5760 5787 5796 5789 5789 5788 5790 5803 5802 5806 5806 5820 5827 5822 5802 5816 5812 5792 5808 5838 5843 5833 5827 5828 5802 5791 5817 5812 5787 5834 5842 5842 5836 5832 5833 5834 5833
5777 5781 5794 5790 5768 5782 5788 5779 5781 5781 5784 5784 5782 5790 5797 5784 5771 5791 5809 5820 5813 5811 5801 5816 5795 5781 5795 5827 5835 5813 5825 5834 5839 5839 5812 5791 5803 5846 5842 5839 5841 5835 5831 5830 5831
5768 5767 5779 5781 5782 5770 5773 5771 5771 5780 5773 5777 5776 5786 5778 5776 5788 5777 5783 5802 5802 5807 5788 5800 5797 5792 5782 5758 5781 5785 5814 5831 5833 5815 5818 5822 5824 5834 5836 5833 5832 5836 5835 5829 5826
5763 5760 5758 5766 5768 5765 5764 5764 5759 5759 5769 5771 5766 5768 5769 5761 5775 5778 5785 5788 5789 5776 5788 5792 5774 5788 5801 5812 5792 5781 5790 5815 5796 5823 5812 5818 5779 5790 5837 5812 5790 5833 5834 5828 5822
5739 5737 5751 5754 5755 5749 5739 5750 5750 5756 5750 5750 5749 5763 5759 5753 5763 5762 5767 5781 5774 5783 5779 5790 5763 5778 5775 5801 5807 5797 5812 5822 5821 5817 5825 5831 5813 5813 5831 5846 5838 5838 5832 5827 5823
5727 5735 5730 5734 5749 5744 5748 5747 5737 5736 5740 5745 5741 5735 5739 5746 5750 5761 5762 5767 5772 5768 5769 5767 5761 5759 5751 5788 5790 5778 5801 5809 5817 5820 5810 5810 5833 5855 5842 5834 5836 5834 5832 5827 5828